UPMSAT-2 (46276 NORAD) Tracking and Keplerian Element Data

This shows tracking and keplerian element data for the satellite.

Feedback or suggestion? Click here.




ElementValue
Catalog46276
NameUPMSAT-2
Epoch Orbit1343
Epoch Day335.78431058
Epoch Year2020
RAAN47.3513
Inclination97.4556
Eccentricity0.0001532
Argument of Perigee37.1052
Mean Anonmoly323.0286
Mean Motion15.1615491
Decay Rate1.383E-05
L11 46276U 20061E 20335.78431058 .00001383 00000-0 75099-4 0 9992
L22 46276 97.4556 47.3513 0001532 37.1052 323.0286 15.16154910 13433

Live tracking and technical data element details for UPMSAT-2 (NORAD 46276). UPMSAT-2 can be tracked NOW for your location showing map with azimuth and elevation plus other details from your city location.

Track the satellite on the map from your city or location and see movement details for azimuth, elevation, latitude, longitude, range, height, and movement on the map or in text.







IsCatalogInMostPopularTable: catalog: 46276, numindb: 21
Update: records affected: 1



GetName: 46276 UPMSAT-2

Hit Count: updated at: Tue, 01 Dec 2020 20:55:39 GMT